Regional Weather Roundup
Issued by NWS Burlington, VT

Home | Current Version | Previous Version | Text Only | Print | Product List | Glossary On
Versions: 1 2 3 4 5 6 7 8 9 10 11 12 13 14 15 16 17 18 19 20 21 22 23 24 25 26 27 28 29 30 31 32 33 34 35 36 37 38 39 40 41 42 43 44 45 46 47 48 49 50
000
ASUS41 KBTV 270710
RWRBTV
VERMONT REGIONAL WEATHER ROUNDUP
NATIONAL WEATHER SERVICE BURLINGTON VT
300 AM EDT TUE JUN 27 2017

NOTE: "FAIR" INDICATES FEW OR NO CLOUDS BELOW 12,000 FEET WITH NO
SIGNIFICANT WEATHER AND/OR OBSTRUCTIONS TO VISIBILITY.

* THESE REPORTS ARE NOT UNDER NWS QUALITY CONTROL AND/OR DO NOT
  REPORT WEATHER SUCH AS PRECIPITATION AND FOG.

VTZ001>019-270800-
_____VERMONT_____


CITY           SKY/WX    TMP DP  RH WIND       PRES   REMARKS
BURLINGTON     PTCLDY    57  55  93 SE6       29.95F
MONTPELIER     MOCLDY    53  53 100 CALM      30.00F
MORRISVILLE    MOCLDY    51  50  96 CALM      29.97F
ST. JOHNSBURY*   N/A     52  52 100 MISG      29.96F
LYNDONVILLE*   FAIR      52  51  95 CALM      29.99F
MIDDLEBURY*    FAIR      56  54  94 CALM      29.96S
RUTLAND*       CLOUDY    55  53  93 E8        29.96F
SPRINGFIELD    CLOUDY    54  52  93 CALM      29.99F
HIGHGATE*      FAIR      56  55  97 CALM      29.93S
NEWPORT*       LGT RAIN  51  50  95 SW6       29.97S
BENNINGTON     PTCLDY    55  52  89 S3        29.99F

_____LAKE CHAMPLAIN_____


CITY           SKY/WX    TMP DP  RH WIND       PRES   REMARKS

$$

NYZ007-026>031-035-052-083-087-270800-
_____NORTHERN NEW YORK_____


CITY           SKY/WX    TMP DP  RH WIND       PRES   REMARKS
SARANAC LAKE   MOCLDY    40  40 100 CALM      29.94S FOG
MASSENA        CLEAR     52  51  97 CALM      29.92S
OGDENSBURG*    FAIR      52  51  97 S5        29.91S
WATERTOWN      CLEAR     54  53  97 S5        29.93S
FT DRUM        CLEAR     53  51  91 S7        29.93S
ALBANY         CLOUDY    57  54  89 CALM      29.98F
GLENS FALLS    CLOUDY    56  55  97 S8        29.97F

$$
NHZ002-005-011-270800-
_____NEW HAMPSHIRE_____


CITY           SKY/WX    TMP DP  RH WIND       PRES   REMARKS
LEBANON        CLOUDY    56  54  93 SE3       29.97F
KEENE          PTCLDY    55  55 100 CALM      30.01S
MT WASHINGTON  FOG       37  37 100 W28         N/A  VSB 0   WCI  25
PLYMOUTH       MOCLDY    51  49  95 CALM      29.99S
WHITEFIELD     CLOUDY    47  44  90 CALM      29.98F FOG

$$

_____REGIONAL QUEBEC LOCATIONS_____


CITY           SKY/WX    TMP DP  RH WIND       PRES   REMARKS
MONTREAL       MOCLDY    59  52  77 W6        29.91R
QUEBEC CITY    CLEAR     48  43  81 N5        29.94S
SHERBROOKE     MOCLDY    48  46  93 E6        29.95F

_____REGIONAL ONTARIO LOCATIONS_____


CITY           SKY/WX    TMP DP  RH WIND       PRES   REMARKS
OTTAWA         PTCLDY    52  52 100 SW5       29.91R

______KEY______
VSB  - VISIBILITY IN MILES
WCI  - WIND CHILL INDEX
HX   - HEAT INDEX
$$
NNNN




USA.gov is the U.S. government's official web portal to all federal, state and local government web resources and services.